OK2ZEO-5 Weather Reports


time (UTC)temp
C
wind
direction
speed
KPH
gust
KPH
rain 1hr
cm
rain 24hr
cm
rain mn
cm
humidity
%
barometer
mb
20260503034503 1 0 0.0 0.0 0.00 0.00 0.00 77 1020.2
20260503034003 1 0 0.0 0.0 0.00 0.00 0.00 77 1020.3
20260503033719 1 0 0.0 0.0 0.00 0.00 0.00 77 1020.2
20260503033003 1 0 0.0 0.0 0.00 0.00 0.00 77 1020.2
20260503032717 1 0 0.0 0.0 0.00 0.00 0.00 77 1020.2
20260503032003 1 0 0.0 0.0 0.00 0.00 0.00 77 1020.2
20260503031503 1 0 0.0 0.0 0.00 0.00 0.00 77 1020.1
20260503031003 1 0 0.0 0.0 0.00 0.00 0.00 77 1020.1
20260503030503 1 0 0.0 0.0 0.00 0.00 0.00 77 1020.1
20260503030003 2 0 0.0 0.0 0.00 0.00 0.00 76 1020.1
20260503025503 2 0 0.0 0.0 0.00 0.00 0.00 76 1020.2
20260503025003 1 0 0.0 0.0 0.00 0.00 0.00 77 1020.2
20260503024503 1 0 0.0 0.0 0.00 0.00 0.00 77 1020.1
20260503024003 1 0 0.0 0.0 0.00 0.00 0.00 77 1020.1
20260503023503 2 0 0.0 0.0 0.00 0.00 0.00 77 1020.1
20260503023219 2 0 0.0 0.0 0.00 0.00 0.00 77 1020.0
20260503022504 2 0 0.0 0.0 0.00 0.00 0.00 77 1020.0
20260503022003 1 197 0.0 1.6 0.00 0.00 0.00 77 1019.9
20260503021503 2 197 0.0 1.6 0.00 0.00 0.00 77 1019.9
20260503021219 2 197 0.0 1.6 0.00 0.00 0.00 77 1020.0
20260503020503 2 0 0.0 0.0 0.00 0.00 0.00 77 1020.1
20260503020003 2 0 0.0 0.0 0.00 0.00 0.00 77 1020.1
20260503015503 2 0 0.0 0.0 0.00 0.00 0.00 77 1020.0
20260503015003 2 0 0.0 0.0 0.00 0.00 0.00 77 1019.9
20260503014503 2 0 0.0 0.0 0.00 0.00 0.00 77 1020.1
20260503014003 2 0 0.0 0.0 0.00 0.00 0.00 78 1020.0
20260503013503 2 0 0.0 0.0 0.00 0.00 0.00 78 1019.9
20260503013003 2 0 0.0 0.0 0.00 0.00 0.00 78 1019.9
20260503012503 2 0 0.0 0.0 0.00 0.00 0.00 78 1019.9
20260503012003 2 0 0.0 0.0 0.00 0.00 0.00 78 1020.0
20260503011503 2 0 0.0 0.0 0.00 0.00 0.00 78 1020.1
20260503011004 2 0 0.0 0.0 0.00 0.00 0.00 78 1020.1
20260503010503 3 0 0.0 0.0 0.00 0.00 0.00 78 1020.1
20260503010003 3 0 0.0 0.0 0.00 0.00 0.00 78 1020.1
20260503005718 3 0 0.0 0.0 0.00 0.00 0.00 78 1020.1
20260503005003 3 195 0.0 3.2 0.00 0.00 0.00 78 1020.2
20260503004503 3 195 0.0 3.2 0.00 0.00 0.00 78 1020.2
20260503004003 3 195 0.0 1.6 0.00 0.00 0.00 78 1020.1
20260503003503 3 0 0.0 0.0 0.00 0.00 0.00 79 1020.1
20260503003003 3 0 0.0 0.0 0.00 0.00 0.00 79 1020.2
20260503002716 3 0 0.0 0.0 0.00 0.00 0.00 79 1020.2
20260503002003 3 0 0.0 0.0 0.00 0.00 0.00 79 1020.3
20260503001503 3 0 0.0 0.0 0.00 0.00 0.00 79 1020.3
20260503001003 3 0 0.0 0.0 0.00 0.00 0.00 79 1020.3
20260503000503 3 0 0.0 0.0 0.00 0.00 0.00 79 1020.4
20260503000004 3 0 0.0 0.0 0.00 0.00 0.00 79 1020.4
20260502235503 3 0 0.0 0.0 0.00 0.00 0.00 79 1020.4
20260502235218 3 0 0.0 0.0 0.00 0.00 0.00 79 1020.4
20260502234503 3 195 0.0 1.6 0.00 0.00 0.00 79 1020.4
20260502234003 4 195 0.0 1.6 0.00 0.00 0.00 79 1020.5
20260502233503 4 0 0.0 0.0 0.00 0.00 0.00 79 1020.5
20260502233003 4 0 0.0 0.0 0.00 0.00 0.00 79 1020.4
20260502232503 4 0 0.0 0.0 0.00 0.00 0.00 79 1020.4
20260502232003 4 0 0.0 0.0 0.00 0.00 0.00 79 1020.4
20260502231503 4 0 0.0 0.0 0.00 0.00 0.00 79 1020.5
20260502231003 5 0 0.0 0.0 0.00 0.00 0.00 79 1020.5
20260502230503 5 0 0.0 0.0 0.00 0.00 0.00 79 1020.5
20260502230003 5 0 0.0 0.0 0.00 0.00 0.00 79 1020.4
20260502225717 5 0 0.0 0.0 0.00 0.00 0.00 79 1020.5
20260502225004 5 193 0.0 1.6 0.00 0.00 0.00 78 1020.5
20260502224503 5 0 0.0 0.0 0.00 0.00 0.00 78 1020.6
20260502224003 5 0 0.0 0.0 0.00 0.00 0.00 78 1020.6
20260502223503 5 0 0.0 0.0 0.00 0.00 0.00 78 1020.6
20260502223003 5 0 0.0 0.0 0.00 0.00 0.00 78 1020.6
20260502222503 6 0 0.0 0.0 0.00 0.00 0.00 78 1020.6
20260502222003 6 193 0.0 1.6 0.00 0.00 0.00 78 1020.6
20260502221503 6 193 0.0 1.6 0.00 0.00 0.00 77 1020.6
20260502221003 6 193 0.0 1.6 0.00 0.00 0.00 77 1020.7
20260502220503 6 0 0.0 0.0 0.00 0.00 0.00 77 1020.7
20260502220004 6 0 0.0 0.0 0.00 0.00 0.00 77 1020.6
20260502215717 6 0 0.0 0.0 0.00 0.00 0.00 77 1020.7
20260502215003 7 0 0.0 0.0 0.00 0.00 0.00 76 1020.7
20260502214503 7 0 0.0 0.0 0.00 0.00 0.00 75 1020.6
20260502214003 7 0 0.0 0.0 0.00 0.00 0.00 75 1020.6
20260502213503 7 0 0.0 0.0 0.00 0.00 0.00 75 1020.7
20260502213003 7 0 0.0 0.0 0.00 0.00 0.00 74 1020.7
20260502212503 7 0 0.0 0.0 0.00 0.00 0.00 74 1020.8
20260502212003 8 0 0.0 0.0 0.00 0.00 0.00 74 1020.9
20260502211716 8 0 0.0 0.0 0.00 0.00 0.00 74 1020.8
20260502211217 8 0 0.0 0.0 0.00 0.00 0.00 73 1020.8
20260502210503 8 0 0.0 0.0 0.00 0.00 0.00 72 1020.8
20260502210003 8 0 0.0 0.0 0.00 0.00 0.00 72 1020.9
20260502205503 8 0 0.0 0.0 0.00 0.00 0.00 72 1021.0
20260502205003 8 0 0.0 0.0 0.00 0.00 0.00 72 1021.0
20260502204503 8 0 0.0 0.0 0.00 0.00 0.00 71 1021.1
20260502204003 9 0 0.0 0.0 0.00 0.00 0.00 71 1021.0
20260502203503 9 0 0.0 0.0 0.00 0.00 0.00 71 1021.1
20260502203003 9 0 0.0 0.0 0.00 0.00 0.00 70 1021.0
20260502202503 9 0 0.0 0.0 0.00 0.00 0.00 69 1021.0
20260502202003 10 0 0.0 0.0 0.00 0.00 0.00 69 1021.1
20260502201503 10 0 0.0 0.0 0.00 0.00 0.00 69 1021.1
20260502201003 10 193 0.0 1.6 0.00 0.00 0.00 68 1021.0
20260502200503 10 193 0.0 3.2 0.00 0.00 0.00 68 1021.0
20260502200219 10 193 0.0 3.2 0.00 0.00 0.00 68 1021.0
20260502195503 10 0 0.0 0.0 0.00 0.00 0.00 66 1021.0
20260502195003 11 0 0.0 0.0 0.00 0.00 0.00 66 1021.0
20260502194503 11 0 0.0 0.0 0.00 0.00 0.00 65 1021.0
20260502194003 11 0 0.0 0.0 0.00 0.00 0.00 63 1021.0
20260502193503 12 93 0.0 1.6 0.00 0.00 0.00 61 1021.0
20260502193003 12 93 0.0 1.6 0.00 0.00 0.00 59 1021.0
20260502192718 12 93 0.0 1.6 0.00 0.00 0.00 57 1021.0
20260502192003 13 0 0.0 0.0 0.00 0.00 0.00 58 1021.0
20260502191503 13 0 0.0 0.0 0.00 0.00 0.00 58 1021.0
20260502191217 13 0 0.0 0.0 0.00 0.00 0.00 58 1021.0
20260502190718 14 0 0.0 0.0 0.00 0.00 0.00 56 1020.9
20260502190004 15 0 0.0 0.0 0.00 0.00 0.00 54 1020.9
20260502185720 15 0 0.0 0.0 0.00 0.00 0.00 53 1020.8
20260502185003 15 0 0.0 0.0 0.00 0.00 0.00 51 1020.8
20260502184503 16 0 0.0 0.0 0.00 0.00 0.00 49 1020.8
20260502184003 17 0 0.0 0.0 0.00 0.00 0.00 45 1020.7
20260502183503 17 113 0.0 3.2 0.00 0.00 0.00 43 1020.6
20260502183003 18 113 0.0 3.2 0.00 0.00 0.00 42 1020.6
20260502182503 18 0 0.0 0.0 0.00 0.00 0.00 39 1020.5
20260502182003 18 116 0.0 3.2 0.00 0.00 0.00 39 1020.5
20260502181503 19 110 0.0 6.4 0.00 0.00 0.00 38 1020.4
20260502181003 19 102 1.6 9.7 0.00 0.00 0.00 35 1020.3
20260502180503 20 104 1.6 14.5 0.00 0.00 0.00 35 1020.2
20260502170503 22 124 0.0 4.8 0.00 0.00 0.00 28 1020.4
20260502164003 23 125 1.6 12.9 0.00 0.00 0.00 27 1020.6
20260502163503 23 132 0.0 6.4 0.00 0.00 0.00 26 1020.7
20260502163216 23 131 0.0 6.4 0.00 0.00 0.00 26 1020.6
20260502162504 23 129 0.0 3.2 0.00 0.00 0.00 26 1020.8
20260502162003 23 170 0.0 3.2 0.00 0.00 0.00 26 1020.8
20260502161503 23 135 0.0 4.8 0.00 0.00 0.00 27 1020.9
20260502161219 23 135 0.0 4.8 0.00 0.00 0.00 26 1020.9
20260502160503 23 131 0.0 6.4 0.00 0.00 0.00 26 1021.0
20260502151503 23 167 1.6 8.0 0.00 0.00 0.00 24 1021.5
20260502151003 23 166 1.6 8.0 0.00 0.00 0.00 24 1021.5
20260502150716 23 176 1.6 9.7 0.00 0.00 0.00 24 1021.6
20260502130719 23 248 1.6 11.3 0.00 0.00 0.00 24 1022.7
20260502123717 23 225 1.6 11.3 0.00 0.00 0.00 24 1023.2
20260502123003 22 216 0.0 4.8 0.00 0.00 0.00 26 1023.2
20260502122719 22 216 0.0 4.8 0.00 0.00 0.00 25 1023.2
20260502122003 22 203 1.6 12.9 0.00 0.00 0.00 25 1023.5
20260502121504 22 207 3.2 12.9 0.00 0.00 0.00 24 1023.5
20260502121003 23 212 1.6 8.0 0.00 0.00 0.00 25 1023.5
20260502120504 22 178 1.6 12.9 0.00 0.00 0.00 25 1023.6
20260502120216 22 178 1.6 12.9 0.00 0.00 0.00 25 1023.7
20260502115503 22 146 1.6 14.5 0.00 0.00 0.00 25 1023.8
20260502115003 22 127 1.6 16.1 0.00 0.00 0.00 25 1023.8
20260502114503 22 126 1.6 16.1 0.00 0.00 0.00 26 1023.9
20260502114003 22 178 0.0 3.2 0.00 0.00 0.00 26 1024.0
20260502113503 22 123 1.6 14.5 0.00 0.00 0.00 25 1024.0
20260502113003 22 125 1.6 14.5 0.00 0.00 0.00 25 1024.2
20260502112719 22 155 1.6 14.5 0.00 0.00 0.00 26 1024.0
20260502112003 22 129 1.6 14.5 0.00 0.00 0.00 27 1024.2
20260502111503 22 109 1.6 14.5 0.00 0.00 0.00 27 1024.3
20260502111218 22 122 0.0 14.5 0.00 0.00 0.00 27 1024.3
20260502110503 22 127 1.6 11.3 0.00 0.00 0.00 28 1024.4
20260502110003 22 134 1.6 14.5 0.00 0.00 0.00 30 1024.5
20260502105717 22 136 1.6 14.5 0.00 0.00 0.00 28 1024.4
20260502105003 22 150 1.6 11.3 0.00 0.00 0.00 29 1024.6
20260502104503 22 146 3.2 16.1 0.00 0.00 0.00 31 1024.6
20260502104220 21 152 3.2 16.1 0.00 0.00 0.00 30 1024.6
20260502103503 22 160 3.2 14.5 0.00 0.00 0.00 31 1024.7
20260502103003 21 145 3.2 16.1 0.00 0.00 0.00 31 1024.8
20260502102503 21 132 1.6 16.1 0.00 0.00 0.00 32 1024.9
20260502102003 21 153 0.0 11.3 0.00 0.00 0.00 33 1024.9
20260502101503 21 242 0.0 6.4 0.00 0.00 0.00 36 1025.0
20260502101217 20 246 0.0 6.4 0.00 0.00 0.00 36 1025.0
20260502100503 20 218 0.0 12.9 0.00 0.00 0.00 35 1025.0
20260502091217 20 302 0.0 8.0 0.00 0.00 0.00 39 1025.6
20260502090504 21 118 0.0 1.6 0.00 0.00 0.00 37 1025.7
20260502071503 15 0 0.0 0.0 0.00 0.00 0.00 56 1026.4
20260502071003 15 0 0.0 0.0 0.00 0.00 0.00 56 1026.4
20260502070717 14 0 0.0 0.0 0.00 0.00 0.00 58 1026.4
20260502070218 14 0 0.0 0.0 0.00 0.00 0.00 60 1026.4
20260502065503 14 0 0.0 0.0 0.00 0.00 0.00 59 1026.5
20260502065216 14 0 0.0 0.0 0.00 0.00 0.00 60 1026.5
20260502064503 13 0 0.0 0.0 0.00 0.00 0.00 62 1026.5
20260502064003 13 330 0.0 1.6 0.00 0.00 0.00 64 1026.6
20260502063503 12 330 0.0 1.6 0.00 0.00 0.00 66 1026.5
20260502063003 12 330 0.0 1.6 0.00 0.00 0.00 68 1026.6
20260502062503 11 326 0.0 1.6 0.00 0.00 0.00 69 1026.6
20260502062003 11 326 0.0 1.6 0.00 0.00 0.00 72 1026.7
20260502061719 10 0 0.0 0.0 0.00 0.00 0.00 72 1026.7
20260502061003 10 0 0.0 0.0 0.00 0.00 0.00 75 1026.7
20260502060504 9 0 0.0 0.0 0.00 0.00 0.00 76 1026.7
20260502060003 8 0 0.0 0.0 0.00 0.00 0.00 77 1026.7
20260502055503 8 0 0.0 0.0 0.00 0.00 0.00 78 1026.7
20260502055003 7 0 0.0 0.0 0.00 0.00 0.00 79 1026.7
20260502054503 6 0 0.0 0.0 0.00 0.00 0.00 78 1026.7
20260502054217 6 0 0.0 0.0 0.00 0.00 0.00 78 1026.7
20260502053719 5 0 0.0 0.0 0.00 0.00 0.00 77 1026.7
20260502053003 4 0 0.0 0.0 0.00 0.00 0.00 76 1026.7
20260502052503 4 0 0.0 0.0 0.00 0.00 0.00 74 1026.6
20260502052003 3 0 0.0 0.0 0.00 0.00 0.00 73 1026.7
20260502051503 3 0 0.0 0.0 0.00 0.00 0.00 73 1026.7
20260502051004 2 0 0.0 0.0 0.00 0.00 0.00 72 1026.7
20260502050503 2 0 0.0 0.0 0.00 0.00 0.00 72 1026.6
20260502050217 2 0 0.0 0.0 0.00 0.00 0.00 72 1026.6
20260502045503 1 0 0.0 0.0 0.00 0.00 0.00 72 1026.6
20260502045003 1 0 0.0 0.0 0.00 0.00 0.00 73 1026.6
20260502044504 1 326 0.0 1.6 0.00 0.00 0.00 73 1026.6
20260502044003 1 326 0.0 1.6 0.00 0.00 0.00 73 1026.5
20260502043718 1 326 0.0 1.6 0.00 0.00 0.00 73 1026.5
20260502043003 1 0 0.0 0.0 0.00 0.00 0.00 73 1026.5
20260502042503 1 0 0.0 0.0 0.00 0.00 0.00 73 1026.5
20260502042003 0 0 0.0 0.0 0.00 0.00 0.00 73 1026.5
20260502041503 0 0 0.0 0.0 0.00 0.00 0.00 73 1026.6
20260502041219 0 326 0.0 1.6 0.00 0.00 0.00 73 1026.6
20260502040503 0 326 0.0 1.6 0.00 0.00 0.00 74 1026.5
20260502040003 0 326 0.0 1.6 0.00 0.00 0.00 74 1026.6
20260502035718 0 326 0.0 1.6 0.00 0.00 0.00 75 1026.5
20260502035003 0 0 0.0 0.0 0.00 0.00 0.00 75 1026.5